Regional Weather Roundup
Issued by NWS

Home | Current Version | Previous Version | Graphics & Text | Print | Product List | Glossary On
Versions: 1 2 3 4 5 6 7 8 9 10 11 12 13 14 15 16 17 18 19 20 21 22 23 24 25 26 27 28 29 30 31 32 33 34 35 36 37 38 39 40 41 42 43 44 45 46 47 48 49 50
311
ASUS43 KFSD 282210
RWRSD

WEATHER ROUNDUP FOR SOUTH DAKOTA
NATIONAL WEATHER SERVICE SIOUX FALLS SD
500 PM CDT WED SEP 28 2016

NOTE: "FAIR" INDICATES FEW OR NO CLOUDS BELOW 12,000 FEET WITH NO
SIGNIFICANT WEATHER AND/OR OBSTRUCTIONS TO VISIBILITY.


SDZ001>005-009-010-012>017-282300-
NORTHWEST AND NORTH CENTRAL SOUTH DAKOTA

CITY           SKY/WX    TMP DP  RH WIND       PRES   REMARKS
BUFFALO          N/A     80  48  32 SE13      30.18F
FAITH            N/A     74  41  30 E8        30.27R
MOBRIDGE       SUNNY     69  44  40 NE8       30.27R
$$

SDZ012>016-024>037-041>051-057-063-072>074-282300-
SOUTHWEST AND SOUTH CENTRAL SOUTH DAKOTA

CITY           SKY/WX    TMP DP  RH WIND       PRES   REMARKS
RAPID CTY ARPT SUNNY     78  47  33 NE6       30.26R
PIERRE         SUNNY     71  41  33 NE9       30.25S
CUSTER         SUNNY     73  37  27 NE12G20   30.36S
ELLSWORTH AFB  SUNNY     78  47  33 E7        30.26R
PHILIP         SUNNY     74  38  27 E16       30.25S
PINE RIDGE     SUNNY     81  43  26 MISG      30.24S
WINNER         FAIR      70  47  43 E10       30.27R
$$

SDZ004>011-016>023-039-040-282300-
NORTHEAST SOUTH DAKOTA

CITY           SKY/WX    TMP DP  RH WIND       PRES   REMARKS
ABERDEEN       SUNNY     66  42  41 NE7       30.30R
WATERTOWN      SUNNY     61  46  57 NE9       30.30R
BROOKINGS      SUNNY     59  46  62 NE12      30.29R
SISSETON         N/A     62  46  55 N5        30.31R
$$

SDZ017-020-022-023-036>040-048>070-282300-
SOUTHEAST SOUTH DAKOTA

CITY           SKY/WX    TMP DP  RH WIND       PRES   REMARKS
SIOUX FALLS    MOSUNNY   65  47  52 NE8       30.27R
HURON          SUNNY     68  44  42 N8        30.27S
CHAMBERLAIN    SUNNY     70  44  38 E3        30.27S
MITCHELL       SUNNY     68  43  40 N8        30.28R
YANKTON        SUNNY     66  43  42 NE9       30.24S
$$

ABBREVIATIONS USED IN REMARKS
   TC - TEMPERATURE IN CELSIUS
  WCI - WIND CHILL INDEX
   HX - HEAT INDEX
  VSB - VISIBILITY





USA.gov is the U.S. government's official web portal to all federal, state and local government web resources and services.